Regional Weather Roundup
Issued by NWS

Home | Current Version | Previous Version | Graphics & Text | Print | Product List | Glossary On
Versions: 1 2 3 4 5 6 7 8 9 10 11 12 13 14 15 16 17 18 19 20 21 22 23 24 25 26 27 28 29 30 31 32 33 34 35 36 37 38 39 40 41 42 43 44 45 46 47 48 49 50
000
ASUS43 KBIS 280102
RWRND

NORTH DAKOTA REGIONAL WEATHER ROUNDUP
NATIONAL WEATHER SERVICE BISMARCK ND
800 PM CDT MON JUL 27 2015

NOTE: "FAIR" INDICATES FEW OR NO CLOUDS BELOW 12,000 FEET WITH NO
SIGNIFICANT WEATHER AND/OR OBSTRUCTIONS TO VISIBILITY.


NDZ001>003-009>011-017-280200-
NORTHWEST NORTH DAKOTA

CITY           SKY/WX    TMP DP  RH WIND       PRES   REMARKS
WILLISTON      PTSUNNY   89  67  47 E14       29.53F HX  92
MINOT          PTSUNNY   87  68  52 SE9       29.62F HX  90
MINOT AFB      PTSUNNY   83  75  76 SE9       29.61F HX  90
$$

NDZ018>021-031>035-040>046-280200-
SOUTHWEST NORTH DAKOTA

CITY           SKY/WX    TMP DP  RH WIND       PRES   REMARKS
BISMARCK       CLOUDY    86  72  62 SE13      29.65S HX  92
DICKINSON      CLOUDY    82  61  48 SW15      29.62R
GARRISON         N/A     81  68  64 S9        29.64R
HETTINGER ARPT LGT RAIN  78  60  53 SE10      29.67R
$$

NDZ004>008-012>016-024-026-027-054-280200-
NORTHEAST NORTH DAKOTA

CITY           SKY/WX    TMP DP  RH WIND       PRES   REMARKS
GRAND FORKS    SUNNY     84  71  65 SE15      29.73F
DEVILS LAKE    SUNNY     82  70  65 SE16G22   29.71F
$$

NDZ022-023-025-028>030-036>039-047>053-280200-
SOUTHEAST NORTH DAKOTA

CITY           SKY/WX    TMP DP  RH WIND       PRES   REMARKS
FARGO          PTCLDY    86  70  58 SE18G25   29.75F HX  90
JAMESTOWN      SUNNY     83  73  72 SE21G26   29.71F
$$



USA.gov is the U.S. government's official web portal to all federal, state and local government web resources and services.